Home   Weather   Roanoke   Past weeks
Flag for USA

Past Weather in Roanoke, Alabama, USA — Yesterday and Last 2 Weeks

Now
58 °F

Low clouds.


Feels Like: 57 °F
Forecast: 74 / 54 °F
Wind: 6 mph from Northwest

Location: Callaway Airport

Current Time: Oct 20, 2019 at 8:57:50 am

Latest Report: Oct 20, 2019 at 7:55 am


Visibility: 10 mi

Pressure: 29.91 "Hg

Humidity: 97%

Dew Point: 57 °F

Location of RoanokeLocation

Past Weather in Roanoke — Graph

°F

Roanoke Temperature Yesterday

Maximum temperature yesterday: 62 °F (at 3:35 am)
Minimum temperature yesterday: 55 °F (at 8:55 pm)
Average temperature yesterday: 57 °F

High & Low Weather Summary for the Past Weeks

 TemperatureHumidityPressure
High94 °F (Oct 5, 1:35 pm)97% (Oct 7, 3:55 am)30.23 "Hg (Oct 7, 3:55 am)
Low41 °F (Oct 17, 5:35 am)25% (Oct 17, 2:55 pm)29.71 "Hg (Oct 19, 3:35 pm)
Average67 °F76%30.03 "Hg
* Reported Oct 5 7:35 am — Oct 20 7:35 am, Roanoke. Weather by CustomWeather, © 2019

Note: Actual official high and low records may vary slightly from our data, if they occured in-between our weather recording intervals... More about our weather records

Advertising

Roanoke Weather History for the Previous 24 Hours

Scroll right to see more
 ConditionsComfort  
Time TempWeatherWind HumidityBarometerVisibility
7:35 am
Sun, Oct 20
57 °FLow clouds.6 mph97%29.90 "Hg10 mi
6:55 am57 °FLow clouds.6 mph97%29.88 "Hg10 mi
6:35 am57 °FLow clouds.7 mph97%29.88 "Hg10 mi
5:55 am57 °FLow clouds.3 mph96%29.86 "Hg10 mi
5:35 am57 °FLow clouds.5 mph97%29.86 "Hg10 mi
5:15 am57 °FLow clouds.3 mph97%29.85 "Hg10 mi
4:55 am57 °FFog.5 mph97%29.84 "Hg4 mi
4:35 am57 °FLow clouds.5 mph97%29.84 "Hg7 mi
4:15 am57 °FMostly cloudy.7 mph97%29.82 "Hg10 mi
3:55 am57 °FLow clouds.6 mph97%29.81 "Hg10 mi
3:35 am57 °FFog.5 mph97%29.81 "Hg5 mi
3:15 am57 °FFog.5 mph97%29.80 "Hg5 mi
2:55 am57 °FFog.5 mph97%29.80 "Hg4 mi
2:35 am56 °FMostly cloudy.5 mph97%29.80 "Hg7 mi
2:15 am56 °FFog.5 mph97%29.80 "Hg4 mi
1:55 am56 °FLow clouds.6 mph97%29.79 "Hg10 mi
1:35 am56 °FLow clouds.5 mph97%29.79 "Hg7 mi
12:55 am56 °FFog.3 mph97%29.78 "Hg5 mi
12:35 am56 °FLow clouds.6 mph97%29.77 "Hg7 mi
12:15 am56 °FDrizzle. Low clouds.5 mph97%29.77 "Hg5 mi
11:55 pm
Sat, Oct 19
56 °FLight rain. Low clouds.6 mph97%29.76 "Hg7 mi
11:35 pm56 °FLow clouds.8 mph97%29.76 "Hg10 mi
11:15 pm56 °FLow clouds.5 mph97%29.76 "Hg10 mi
10:55 pm55 °FLow clouds.6 mph97%29.76 "Hg10 mi
10:35 pm55 °FLow clouds.5 mph97%29.76 "Hg10 mi
10:15 pm55 °FLow clouds.6 mph97%29.75 "Hg10 mi
9:55 pm55 °FLow clouds.3 mph96%29.75 "Hg10 mi
9:35 pm55 °FLow clouds.3 mph96%29.75 "Hg10 mi
9:15 pm55 °FLow clouds.5 mph97%29.75 "Hg10 mi
8:55 pm55 °FLow clouds.3 mph97%29.75 "Hg10 mi
8:35 pm55 °FLow clouds.5 mph97%29.75 "Hg10 mi
8:15 pm56 °FLow clouds.7 mph97%29.75 "Hg10 mi
7:55 pm56 °FLow clouds.7 mph97%29.74 "Hg10 mi
7:15 pm56 °FDrizzle. Low clouds.7 mph97%29.74 "Hg10 mi
6:55 pm56 °FDrizzle. Low clouds.5 mph97%29.74 "Hg7 mi
6:35 pm56 °FRain. Low clouds.8 mph97%29.73 "Hg3 mi
6:15 pm56 °FRain. Low clouds.6 mph97%29.72 "Hg3 mi
5:55 pm56 °FRain. Low clouds.7 mph97%29.71 "Hg4 mi
5:35 pm56 °FThundershowers. Low clouds.9 mph97%29.71 "Hg4 mi
5:15 pm56 °FRain. Low clouds.8 mph97%29.71 "Hg2 mi
4:55 pm56 °FRain. Low clouds.8 mph97%29.72 "Hg5 mi
4:35 pm56 °FHeavy rain. Low clouds.8 mph97%29.71 "Hg1 mi
4:15 pm56 °FHeavy rain. Low clouds.8 mph97%29.71 "Hg4 mi
3:35 pm56 °FHeavy rain. Low clouds.7 mph97%29.71 "Hg4 mi
3:15 pm56 °FThundershowers. Mostly cloudy.7 mph97%29.72 "Hg3 mi
2:55 pm56 °FStrong thunderstorms. Low clouds.7 mph97%29.73 "Hg3 mi
2:35 pm56 °FRain. Low clouds.7 mph97%29.74 "Hg7 mi
2:15 pm56 °FRain. Low clouds.7 mph97%29.74 "Hg7 mi
1:55 pm56 °FThundershowers. Low clouds.9 mph97%29.74 "Hg4 mi
1:35 pm56 °FHeavy rain. Low clouds.7 mph97%29.77 "Hg5 mi
12:55 pm56 °FRain. Low clouds.8 mph97%29.78 "Hg5 mi
12:35 pm56 °FLight rain. Low clouds.7 mph97%29.80 "Hg10 mi
12:15 pm56 °FRain. Low clouds.5 mph97%29.81 "Hg3 mi
11:55 am56 °FLight rain. Low clouds.8 mph97%29.82 "Hg7 mi
11:35 am56 °FLight rain. Low clouds.9 mph97%29.83 "Hg7 mi
11:15 am56 °FRain. Low clouds.9 mph97%29.84 "Hg4 mi
10:55 am56 °FHeavy rain. Low clouds.9 mph97%29.84 "Hg1 mi
10:35 am56 °FHeavy rain. Low clouds.9 mph97%29.86 "Hg4 mi
10:15 am56 °FDrizzle. Low clouds.6 mph97%29.87 "Hg5 mi
9:55 am56 °FDrizzle. Low clouds.5 mph97%29.88 "Hg5 mi
9:35 am56 °FRain. Low clouds.7 mph97%29.88 "Hg4 mi
9:15 am56 °FLight rain. Low clouds.8 mph97%29.88 "Hg5 mi
8:55 am56 °FRain. Low clouds.7 mph97%29.88 "Hg3 mi
8:35 am56 °FLight rain. Low clouds.8 mph97%29.88 "Hg5 mi
8:15 am56 °FLow clouds.6 mph97%29.88 "Hg10 mi
Weather by CustomWeather, © 2019

See weather overview